FW0019 Weather Reports


time (UTC)temp
F
wind
direction
speed
knots
gust
knots
rain 1hr
in
rain 24hr
in
rain mn
in
humidity
%
barometer
mb
20260903180050 71 136 8.7 13.9 0.00 0.00 0.00 22 879.4
20260903174545 70 155 8.7 13.9 0.00 0.00 0.00 23 879.4
20260903173041 69 159 5.2 13.0 0.00 0.00 0.00 22 879.4
20260903171538 68 133 6.1 11.3 0.00 0.00 0.00 23 879.3
20260903170033 68 176 5.2 11.3 0.00 0.00 0.00 24 879.3
20260903164527 68 165 7.8 11.3 0.00 0.00 0.00 26 879.1
20260903163023 67 149 7.0 12.2 0.00 0.00 0.00 27 879.1
20260903161517 66 119 5.2 10.4 0.00 0.00 0.00 30 879.1
20260903160013 65 159 7.0 12.2 0.00 0.00 0.00 33 879.0
20260903154509 64 118 6.1 13.0 0.00 0.00 0.00 35 878.9
20260903153003 64 135 7.0 11.3 0.00 0.00 0.00 35 878.8
20260903151600 63 114 6.1 11.3 0.00 0.00 0.00 35 878.9
20260903150055 62 140 6.1 9.6 0.00 0.00 0.00 35 878.9
20260903144553 61 140 5.2 8.7 0.00 0.00 0.00 33 878.8
20260903143048 59 117 3.5 7.0 0.00 0.00 0.00 31 878.8
20260903141543 58 109 3.5 7.0 0.00 0.00 0.00 29 878.6
20260903140044 58 118 5.2 8.7 0.00 0.00 0.00 27 878.4
20260903134534 57 100 5.2 9.6 0.00 0.00 0.00 26 878.2
20260903133029 56 116 5.2 7.8 0.00 0.00 0.00 30 878.1
20260903131525 57 117 6.1 10.4 0.00 0.00 0.00 25 878.2
20260903130020 57 109 6.1 10.4 0.00 0.00 0.00 24 878.1
20260903124526 57 109 5.2 10.4 0.00 0.00 0.00 26 878.0
20260903123015 57 147 4.3 9.6 0.00 0.00 0.00 27 877.9
20260903121508 57 133 5.2 8.7 0.00 0.00 0.00 28 877.9
20260903120003 58 129 4.3 11.3 0.00 0.00 0.00 26 877.9
20260903114559 57 117 7.8 11.3 0.00 0.00 0.00 22 877.9
20260903113054 57 113 3.5 8.7 0.00 0.00 0.00 24 878.1
20260903111549 58 117 3.5 12.2 0.00 0.00 0.00 22 878.2
20260903110046 58 108 3.5 7.8 0.00 0.00 0.00 20 878.2
20260903104542 58 119 2.6 8.7 0.00 0.00 0.00 21 878.3
20260903103038 58 132 3.5 12.2 0.00 0.00 0.00 18 878.3
20260903101531 58 119 2.6 8.7 0.00 0.00 0.00 16 878.5
20260903100029 59 111 6.1 8.7 0.00 0.00 0.00 13 878.5
20260903094532 60 121 5.2 11.3 0.00 0.00 0.00 12 878.5
20260903093020 60 114 6.1 10.4 0.00 0.00 0.00 10 878.6
20260903091514 60 82 7.8 11.3 0.00 0.00 0.00 10 878.7
20260903090016 60 108 7.0 14.8 0.00 0.00 0.00 8 878.8
20260903084506 60 106 7.0 14.8 0.00 0.00 0.00 7 878.9
20260903083001 60 102 7.0 11.3 0.00 0.00 0.00 8 879.2
20260903081613 59 117 5.2 10.4 0.00 0.00 0.00 8 879.3
20260903080052 59 111 5.2 12.2 0.00 0.00 0.00 7 879.4
20260903074555 58 95 4.3 8.7 0.00 0.00 0.00 9 879.5
20260903073055 58 93 2.6 7.0 0.00 0.00 0.00 18 879.5
20260903071558 58 98 2.6 7.0 0.00 0.00 0.00 17 879.4
20260903070041 59 120 1.7 7.8 0.00 0.00 0.00 13 879.4
20260903064540 61 117 2.6 9.6 0.00 0.00 0.00 11 879.3
20260903063046 61 85 6.1 10.4 0.00 0.00 0.00 10 879.2
20260903061540 62 113 7.0 13.0 0.00 0.00 0.00 12 879.1
20260903060108 62 115 6.1 13.0 0.00 0.00 0.00 11 879.1
20260903054537 62 115 7.8 12.2 0.00 0.00 0.00 12 879.2
20260903053035 62 111 7.8 13.0 0.00 0.00 0.00 10 879.4
20260903051535 62 102 6.1 13.9 0.00 0.00 0.00 11 879.4
20260903050034 62 105 6.1 12.2 0.00 0.00 0.00 11 879.6
20260903044536 62 107 6.1 13.0 0.00 0.00 0.00 11 879.7
20260903043032 63 98 5.2 8.7 0.00 0.00 0.00 11 879.6
20260903041532 63 92 6.1 12.2 0.00 0.00 0.00 10 879.6
20260903040049 63 111 6.1 13.0 0.00 0.00 0.00 11 879.6
20260903034532 62 79 5.2 10.4 0.00 0.00 0.00 13 879.4
20260903033032 60 103 2.6 10.4 0.00 0.00 0.00 23 879.4
20260903031531 58 112 3.5 7.0 0.00 0.00 0.00 63 879.3
20260903030024 58 105 2.6 7.8 0.00 0.00 0.00 60 879.2
20260903024523 59 113 2.6 7.8 0.00 0.00 0.00 63 879.2
20260903023035 60 79 3.5 7.8 0.00 0.00 0.00 62 879.2
20260903021521 61 121 3.5 10.4 0.00 0.00 0.00 61 879.1
20260903020019 63 105 6.1 9.6 0.00 0.00 0.00 58 879.1
20260903014517 64 90 7.0 13.9 0.00 0.00 0.00 54 879.0
20260903013014 66 117 5.2 10.4 0.00 0.00 0.00 49 879.2
20260903011513 67 130 7.8 13.0 0.00 0.00 0.00 45 879.3
20260903010034 68 119 4.3 12.2 0.00 0.00 0.00 42 879.3
20260903004511 69 103 7.0 13.9 0.00 0.00 0.00 41 879.3
20260903003010 71 134 7.0 14.8 0.00 0.00 0.00 38 879.2
20260903001512 71 133 7.8 15.6 0.00 0.00 0.00 36 879.4
20260903000007 72 140 7.8 14.8 0.00 0.00 0.00 33 879.4
20260902234506 73 152 7.8 17.4 0.00 0.00 0.00 33 879.4
20260902233004 74 175 9.6 15.6 0.00 0.00 0.00 31 879.5
20260902231504 74 144 7.8 19.1 0.00 0.00 0.00 30 879.6
20260902230003 74 125 7.8 19.1 0.00 0.00 0.00 32 879.9
20260902224502 75 98 8.7 15.6 0.00 0.00 0.00 29 879.9
20260902223004 76 127 6.1 19.1 0.00 0.00 0.00 27 880.0
20260902221600 76 161 4.3 20.0 0.00 0.00 0.00 26 880.0
20260902220104 76 120 9.6 19.1 0.00 0.00 0.00 23 880.3
20260902214605 76 107 11.3 19.1 0.00 0.00 0.00 20 880.2
20260902213056 76 165 9.6 20.0 0.00 0.00 0.00 20 880.3
20260902211556 77 144 13.0 19.1 0.00 0.00 0.00 19 880.3
20260902210056 76 140 9.6 16.5 0.00 0.00 0.00 19 880.5
20260902204555 76 128 9.6 20.0 0.00 0.00 0.00 20 880.6
20260902203053 76 144 8.7 14.8 0.00 0.00 0.00 20 880.7
20260902201553 76 157 7.8 18.2 0.00 0.00 0.00 21 880.8
20260902200052 76 134 7.0 18.2 0.00 0.00 0.00 22 880.8
20260902194550 75 137 11.3 19.1 0.00 0.00 0.00 21 881.0
20260902193049 75 171 8.7 17.4 0.00 0.00 0.00 19 881.0
20260902191550 74 125 7.8 14.8 0.00 0.00 0.00 19 881.2
20260902190047 75 147 7.0 15.6 0.00 0.00 0.00 19 881.1
20260902184546 74 142 7.0 19.1 0.00 0.00 0.00 18 881.2
20260902183043 73 136 9.6 19.1 0.00 0.00 0.00 19 881.3
20260902181547 73 162 8.7 18.2 0.00 0.00 0.00 17 881.2